Dewpoint
57 58 58 58 58 58 59 59 59 59 59 59 59 59 59 59 57 54 39 43 47 61 55 39 35 34 35 35 34 29 22 20 22 18 17 21 19 19 20 19 20 21 32 21 33
57 57 58 58 58 58 59 59 59 59 59 59 59 59 59 59 52 43 51 62 63 62 37 33 33 34 31 34 34 27 22 20 22 24 22 23 23 22 19 19 19 18 21 22 36
57 58 58 58 58 58 59 59 60 60 60 60 59 59 59 57 35 33 55 60 62 56 39 36 34 32 30 33 32 31 23 26 26 27 27 25 24 26 22 22 20 20 21 23 27
58 58 58 58 58 58 59 60 60 60 60 59 59 59 59 51 16 40 58 60 61 45 38 34 32 29 28 27 30 27 29 28 29 30 27 25 27 25 26 25 26 26 25 25 23
58 58 58 58 58 58 59 60 60 60 59 58 58 59 50 35 29 52 60 59 45 41 35 33 29 29 26 26 25 28 27 28 29 27 26 26 23 24 24 25 26 24 20 21 27
58 58 58 58 58 58 59 60 60 59 57 57 58 58 41 27 47 53 50 45 39 37 34 33 30 29 27 25 23 27 27 25 25 24 24 23 23 24 22 23 21 21 25 29 30
59 58 57 57 58 59 59 60 60 57 58 58 57 54 43 28 49 51 46 42 39 37 34 35 33 30 30 25 28 27 22 23 22 24 23 24 21 22 22 22 20 21 27 29 30
58 58 57 57 58 59 59 60 60 56 58 56 58 50 25 36 44 47 43 38 39 36 35 34 34 31 30 29 25 24 22 19 21 24 24 21 18 20 20 20 21 23 27 29 30
58 57 57 57 58 58 59 59 59 56 57 58 51 43 28 41 35 36 36 36 35 33 31 31 32 29 27 24 21 23 15 20 21 25 23 19 18 20 21 21 23 26 28 29 30
58 57 58 58 58 59 59 57 54 54 54 54 48 34 32 27 34 34 33 35 33 32 30 31 29 26 25 21 12 17 19 20 20 22 23 21 20 21 23 23 24 27 29 29 29
58 58 58 58 59 60 57 49 45 44 46 37 33 30 30 35 36 34 34 32 33 30 22 29 23 19 20 24 18 19 20 20 22 23 23 21 21 23 23 23 26 28 29 29 29
58 58 59 60 60 59 55 46 44 43 41 44 42 39 34 34 34 33 33 28 30 23 28 26 22 23 24 24 23 22 22 22 23 24 23 22 22 23 25 26 26 29 29 29 29
58 59 59 59 59 56 50 44 43 41 39 40 41 42 36 34 35 34 31 30 27 25 27 25 26 28 26 25 24 24 23 22 22 23 22 26 22 23 26 29 30 30 30 29 28
59 59 59 58 55 53 46 44 44 40 35 35 36 33 32 35 34 31 33 30 28 25 26 26 27 26 26 26 26 24 26 25 25 21 19 25 18 23 24 27 28 29 29 28 27
59 59 58 59 53 51 48 45 45 39 28 34 32 35 32 34 30 30 31 30 29 28 28 27 27 25 25 26 26 25 25 22 22 20 22 20 18 21 25 25 27 28 28 28 27
58 58 58 58 56 52 46 45 44 36 31 30 29 29 26 27 28 30 29 28 29 27 26 26 25 25 24 25 25 25 22 25 25 23 20 22 20 22 21 24 27 27 28 27 27
58 58 57 58 54 47 47 47 39 34 38 29 26 29 27 25 26 28 25 25 24 22 23 25 25 25 24 22 24 22 24 22 20 19 20 24 23 23 26 27 27 27 28 27 26
57 58 57 56 50 49 52 46 35 38 36 32 27 27 24 26 25 27 25 23 25 27 26 26 25 24 25 23 23 23 25 23 15 18 19 24 20 22 26 28 28 27 27 27 27
57 57 55 52 50 53 50 39 37 39 39 34 35 33 33 28 27 24 25 26 29 26 26 25 26 26 25 26 26 25 25 28 24 16 19 23 24 26 26 25 25 25 25 25 25
53 52 53 52 54 53 46 40 39 41 37 37 33 34 31 33 31 29 30 31 31 28 30 28 25 28 27 29 29 26 29 26 26 15 16 19 22 22 24 23 24 24 24 23 23
50 47 50 53 54 48 41 40 41 39 37 35 34 34 31 30 32 31 30 32 29 29 32 30 29 28 28 27 27 25 25 26 27 24 16 13 16 23 25 24 23 24 24 23 23
47 42 50 53 44 44 39 41 39 36 39 37 36 34 32 32 31 31 31 31 31 32 30 33 31 24 27 28 29 26 25 26 22 19 23 22 19 26 27 24 25 24 23 22 21
44 43 50 50 39 38 41 39 38 35 36 38 36 36 35 33 32 32 33 34 34 34 33 34 29 16 20 22 30 27 30 29 30 27 19 20 21 26 25 25 25 24 24 23 21
42 37 43 46 43 40 38 38 38 41 37 37 36 36 34 32 33 30 32 34 35 37 38 36 29 24 21 15 25 22 24 24 25 19 19 22 20 21 23 25 26 27 25 24 22
41 38 40 36 39 39 38 37 37 33 39 38 34 34 33 31 32 31 31 34 34 38 34 33 30 27 26 27 26 26 25 24 23 21 17 12 14 15 18 19 19 19 20 30 28
37 36 37 36 39 39 38 36 35 36 35 33 33 33 33 31 31 30 31 32 30 33 31 29 22 25 19 22 24 23 23 23 23 22 21 20 20 20 16 16 15 10 15 28 23
39 38 38 36 35 36 36 36 36 35 34 33 33 31 33 33 30 28 29 29 29 30 28 26 21 17 14 17 14 6 13 15 13 15 13 8 12 18 17 17 14 13 10 5 4
Lifted_Index
9 9 9 8 8 8 8 8 8 8 8 8 8 8 8 9 9 9 9 9 9 9 10 10 10 9 9 8 8 7 5 4 4 5 6 6 6 6 7 6 6 7 7 8 8
9 9 9 8 8 8 8 8 8 8 8 8 8 8 8 9 9 9 9 9 8 9 10 10 10 9 8 8 8 7 5 5 6 6 6 6 6 7 6 6 6 6 7 8 8
9 9 9 8 8 8 8 8 8 8 8 8 8 8 8 8 9 9 9 8 8 9 10 10 9 9 8 8 7 6 6 6 7 7 7 7 7 6 6 6 6 6 7 8 8
8 9 9 9 8 8 8 7 7 7 7 8 8 8 8 7 7 8 8 8 9 10 10 10 9 8 7 7 7 6 6 7 7 7 7 7 7 6 6 7 7 7 8 8 8
8 8 9 9 8 8 7 7 7 7 7 8 8 8 7 7 7 8 8 8 9 10 10 10 9 8 7 7 7 7 7 7 7 7 7 7 6 6 6 7 7 8 8 8 8
8 8 8 8 8 7 7 6 6 6 7 7 8 8 7 7 7 8 8 9 10 10 10 10 9 8 8 7 7 7 7 7 7 7 7 6 6 6 6 6 7 7 8 8 8
7 8 8 8 7 6 6 6 6 6 6 7 7 7 7 7 8 8 8 9 10 10 9 9 9 9 8 7 7 7 6 6 6 7 7 6 6 6 6 6 6 7 8 8 8
7 7 7 7 6 6 5 5 6 6 6 6 6 7 7 8 8 8 8 9 9 9 9 9 9 8 8 7 7 6 6 5 6 6 7 6 6 6 6 6 6 7 7 7 7
7 7 7 6 5 5 5 5 5 5 6 6 6 6 7 8 8 9 9 9 9 9 9 9 8 7 7 6 6 5 5 5 5 6 7 7 6 6 6 6 7 7 6 7 7
6 6 6 5 4 4 4 5 5 5 5 6 6 6 7 7 8 9 9 9 8 8 8 8 7 6 6 6 5 5 5 5 5 6 6 6 6 6 6 7 7 7 6 6 7
6 6 5 4 4 4 4 4 5 5 5 5 5 6 6 7 7 8 8 8 7 7 6 6 6 5 5 6 5 5 5 5 6 6 6 6 6 6 6 6 6 6 6 6 7
5 5 4 4 4 4 4 4 5 5 5 5 5 5 5 6 6 6 7 6 6 5 5 5 5 5 5 5 5 5 5 5 5 6 6 6 6 6 5 6 6 6 5 6 6
4 4 3 3 3 3 4 4 4 4 4 4 4 5 5 5 5 5 6 5 5 4 5 5 5 5 5 5 5 5 5 5 5 6 6 6 6 5 5 5 5 5 5 5 6
3 3 3 3 3 3 3 4 4 4 4 4 5 6 6 5 5 5 6 6 5 4 4 5 5 5 5 4 5 5 5 5 5 5 5 5 5 5 5 5 5 5 5 6 6
3 3 3 3 3 3 3 3 4 3 3 4 5 6 6 6 6 6 7 6 5 4 4 5 5 4 4 5 5 5 5 5 5 5 4 4 4 5 5 5 4 4 5 6 7
3 3 3 3 3 3 3 3 3 3 3 4 4 5 5 5 5 6 7 6 5 5 4 5 5 5 5 5 5 4 4 4 3 3 3 4 4 5 5 5 4 4 5 6 6
3 3 3 3 3 2 3 3 3 3 3 3 3 3 3 4 4 5 5 5 5 4 4 4 5 5 5 4 4 3 3 2 2 2 2 3 4 5 5 5 5 4 4 5 6
2 2 2 2 2 2 2 2 2 3 3 3 3 3 3 3 3 4 4 4 4 4 3 3 3 4 4 3 3 2 2 2 1 1 2 4 4 5 6 5 5 4 4 5 5
2 2 2 2 2 2 2 2 3 3 3 3 3 2 2 3 3 3 3 4 4 3 3 2 2 3 3 3 3 3 3 2 2 2 2 3 5 6 6 5 5 5 5 5 5
2 2 2 2 2 2 2 2 3 3 3 2 2 2 2 2 3 3 3 4 3 3 3 2 2 2 3 3 3 3 3 3 3 2 2 3 4 5 5 5 5 5 5 5 5
2 2 3 3 2 2 2 3 3 3 3 2 2 2 2 2 3 3 3 4 3 3 2 2 2 3 3 3 3 3 4 4 3 3 2 2 3 5 5 4 4 4 4 5 5
3 3 4 3 3 2 2 3 3 3 3 2 2 2 3 3 3 3 3 3 3 3 3 2 3 3 3 4 3 4 4 4 4 3 3 2 3 4 4 4 4 4 5 5 6
4 4 4 4 3 3 3 3 3 3 3 2 2 3 3 3 3 3 3 3 3 3 3 3 3 3 3 4 4 4 4 4 4 4 3 3 3 4 4 3 4 5 5 6 6
4 4 5 5 4 4 3 3 3 3 3 3 3 3 3 2 2 3 3 3 3 2 2 2 3 3 3 3 4 4 4 4 4 4 4 4 4 4 4 4 5 5 6 6 6
5 4 4 4 4 4 4 4 4 3 3 3 3 3 3 2 2 2 3 3 3 3 2 2 3 3 3 3 4 4 5 5 5 5 4 4 4 4 5 5 6 6 6 6 6
6 5 4 4 4 4 4 4 4 3 3 3 3 3 3 3 2 2 3 3 3 3 3 3 3 3 3 3 4 4 5 5 5 5 5 4 4 5 5 6 6 6 6 7 6
7 6 4 3 3 3 4 4 3 3 3 3 3 3 3 3 2 3 3 3 3 3 3 3 3 3 3 4 4 4 5 5 5 5 5 4 4 5 6 6 6 7 7 7 7